CZ-4C DEB (43263 NORAD) Tracking and Keplerian Element Data

This shows tracking and keplerian element data for the satellite.

Feedback or suggestion? Click here.




ElementValue
Catalog43263
NameCZ-4C DEB
Epoch Orbit426
Epoch Day119.20053058
Epoch Year2018
RAAN194.4002
Inclination97.9887
Eccentricity0.0047967
Argument of Perigee159.7649
Mean Anonmoly200.5472
Mean Motion14.69090576
Decay Rate2.49E-06
L11 43263U 18031E 18119.20053058 .00000249 00000-0 49986-4 0 9999
L22 43263 97.9887 194.4002 0047967 159.7649 200.5472 14.69090576 4261



Live tracking and technical data element details for CZ-4C DEB (NORAD 43263). CZ-4C DEB can be tracked NOW for your location showing map with azimuth and elevation plus other details from your city location.







IsCatalogInMostPopularTable: catalog: 43263, numindb: 442
Update: records affected: 1



GetName: 43263 CZ-4C DEB

Hit Count: updated at: Sun, 19 Apr 2026 07:57:42 GMT